Voltar ao catálogo

COSMOS 1687

AtivoMilitarHEO
NORAD 16103·PAYLOAD·🇷🇺 Russia

Lançado Sep 30, 1985 de Plesetsk Cosmodrome

Loading…

Próximas Passagens (próximas 24 horas)

TLE

AtualizadoSource: Space-Track

Época: Sep 9, 2026, 04:32 UTC

1 16103U 85088A   26252.18895904 -.00000586  00000-0  00000-0 0  9991
2 16103  72.0632   5.6040 5513934 335.0345   6.6790  2.00707377299945

Acompanhe COSMOS 1687 em tempo real com AllMySat

Download on the App Store